[[{"header":{"parameterUnit":"m.s-1","parameterCategory":1,"la1":30.2991,"la2":30.254,"lo1":-89.0895,"lo2":-89.0444,"dy":0.0017,"dx":0.0017,"nx":28,"ny":28,"refTime":"2024-09-26T03:00:00:Z","depth":0,"parameterNumber":2,"parameterNumberName":"U-component_of_WINDS"},"data":[0,0,0,0,0,0,0,0,0,0,0,0,0,0,0,0,0,0,0,0,0,0,0,0,0,0,0,0,0,0,0,0,0,0,0,0,0,0,0,0,0,0,0,0,0,0,0,0,0,0,0,0,0,0,0,0,0,0,7.4664,7.4666,0,7.4924,7.4927,7.4929,7.4852,7.4847,7.4841,7.4836,7.5106,7.5118,7.513,0,0,0,0,0,0,0,0,0,0,0,0,0,7.4101,7.4112,7.4663,7.4667,7.467,7.4923,7.4927,7.493,7.4853,7.4846,7.484,7.4834,7.5102,7.5117,7.5132,0,0,0,0,0,0,0,0,0,0,0,0,0,7.4352,7.4116,7.4663,7.4662,7.4664,7.4922,7.4927,7.4931,7.4854,7.4846,7.4838,7.483,7.5098,7.5115,7.5134,7.541,0,0,7.519,7.5198,0,0,0,0,0,0,0,0,7.4338,7.4373,7.4659,7.4662,7.4666,7.4847,7.4827,7.5092,7.4856,7.4782,7.4836,7.4826,7.5027,7.5051,7.5117,7.5422,7.5434,7.5191,7.5203,7.521,7.5216,0,0,0,0,0,0,0,7.4321,7.4361,7.4766,7.4663,7.4667,7.4649,7.4675,7.4877,7.4947,7.4788,7.4783,7.4815,7.5027,7.51,7.5123,7.5438,7.5191,7.5207,7.5219,7.5226,7.5979,7.5987,0,0,0,0,0,0,7.43,7.4347,7.4758,7.4774,7.4478,7.4665,7.4695,7.4797,7.4945,7.4959,7.4821,7.481,7.5072,7.5102,7.5132,7.5462,7.521,7.5227,7.5238,7.597,7.5981,7.599,0,0,0,0,0,0,7.4289,7.4338,7.4748,7.4559,7.461,7.4684,7.4799,7.4806,7.4879,7.497,7.4982,7.4883,7.5067,7.5106,7.534,7.547,7.5236,7.5252,7.5959,7.5973,7.5985,7.6126,0,0,0,0,0,0,7.4273,7.4334,7.444,7.4562,7.462,7.4951,7.4807,7.4817,7.491,7.4898,7.503,7.5045,7.5064,7.5313,7.5358,7.5492,7.5267,7.5948,7.5965,7.5981,7.611,7.6143,7.617,0,0,0,0,0,7.4253,7.4471,7.4445,7.4495,7.4754,7.4959,7.4992,7.5008,7.4921,7.5027,7.5085,7.504,7.5449,7.5338,7.5388,7.5529,7.594,7.596,7.598,7.6096,7.6136,7.617,0,0,0,0,0,0,7.4364,7.4487,7.446,7.4724,7.4831,7.4945,7.508,7.5051,7.5186,7.5169,7.5185,7.5216,7.5454,7.5515,7.5389,7.5802,7.5682,7.5713,7.5753,7.5792,7.5821,7.5801,7.5282,0,0,0,0,0,7.4418,7.4574,7.4673,7.4896,7.4951,7.5007,7.5097,7.51,7.5212,7.5258,7.5333,7.5444,7.5597,7.5698,7.5845,7.6119,7.6145,7.624,7.627,7.6295,7.6321,7.6467,7.6509,7.6057,7.6056,7.6056,0,0,7.4534,7.462,7.4718,7.4921,7.5004,7.5164,7.5046,7.5221,7.534,7.5285,7.5508,7.5568,7.5693,7.5947,7.6063,7.6005,7.6452,7.6321,7.6339,7.6353,7.6492,7.6535,7.6573,7.607,7.6068,7.6066,0,0,7.4825,7.4907,7.51,7.5185,7.5312,7.5347,7.5393,7.5512,7.5548,7.5773,7.5733,7.5875,7.614,7.623,7.631,7.6632,7.6595,7.668,7.6837,7.6979,7.7015,7.7046,7.7158,7.7198,7.6706,7.6706,7.6707,0,7.4952,7.5191,7.5203,7.5381,7.547,7.5426,7.562,7.5703,7.5872,7.5935,7.5868,7.6196,7.6278,7.655,7.6628,7.6696,7.6748,7.6664,7.7008,7.704,7.707,7.7177,7.7219,7.6716,7.6715,7.6714,7.6713,0,7.534,7.5506,7.5647,7.5808,7.5914,7.61,7.6139,7.6245,7.6238,7.628,7.6508,7.6604,7.6767,7.6833,7.683,7.7105,7.7064,7.7003,7.6882,7.7122,7.7222,7.7264,7.6729,7.6726,7.6723,7.672,0,0,7.5709,7.5872,7.5923,7.5994,7.613,7.6259,7.6442,7.6599,7.6688,7.6806,7.6958,7.7182,7.7125,7.7216,7.7222,7.7348,7.7592,7.7271,7.7274,7.7324,7.7897,7.794,7.7987,7.7569,7.7577,7.7583,7.7885,0,7.6008,7.6328,7.6343,7.6634,7.6786,7.6745,7.6904,7.7004,7.7048,7.7184,7.7233,7.7389,7.7304,7.7358,7.748,7.7536,7.7707,7.7515,7.7709,7.7716,7.7676,7.804,7.8087,7.8368,7.7925,7.7932,7.7937,0,7.6402,7.6528,7.6834,7.6944,7.7008,7.7151,7.7294,7.7426,7.7538,7.756,7.7661,7.7648,7.7835,7.7709,7.7965,7.7834,7.7914,7.7954,7.7965,7.7982,7.7839,7.8064,7.8458,7.8499,7.7999,7.7994,7.799,0,7.6635,7.6883,7.7096,7.7159,7.7295,7.7395,7.7456,7.756,7.7653,7.7779,7.7839,7.7986,7.8066,7.8181,7.8208,7.8114,7.8463,7.8339,7.8485,7.8485,7.8559,7.8553,7.8968,7.8616,7.8615,7.8615,7.8614,0,7.6967,7.7155,7.7202,7.7334,7.7542,7.7558,7.7764,7.7818,7.7911,7.8051,7.8026,7.8159,7.8188,7.8326,7.8349,7.8555,7.8593,7.8616,7.8619,7.8616,7.8613,7.8667,7.8647,7.8626,7.8623,7.8621,7.8619,0,7.7263,7.7303,7.7532,7.764,7.7672,7.782,7.7913,7.8038,7.8078,7.8256,7.8299,7.8362,7.8523,7.8561,7.8755,7.877,7.9013,7.8999,7.8974,7.8972,7.9114,7.9099,7.9577,7.9639,7.9249,7.9252,7.9256,0,7.7471,7.7614,7.7736,7.7827,7.7892,7.8041,7.8134,7.8154,7.8252,7.8389,7.8498,7.8656,7.8782,7.9042,7.9105,7.9252,7.9239,7.9397,7.9261,7.9253,7.9238,7.9227,7.924,7.9422,7.9426,7.9429,7.9432,0,7.7834,7.7846,7.7981,7.8122,7.8234,7.8347,7.8454,7.8531,7.8566,7.8678,7.8841,7.8939,7.9134,7.929,7.9437,7.95,7.9472,7.9474,7.9515,7.9512,7.949,7.95,7.9041,7.9463,7.946,7.9457,7.9456,7.9455,7.8091,7.8214,7.8318,7.8468,7.8551,7.8651,7.8773,7.8826,7.8962,7.9121,7.9126,7.9302,7.9409,7.9602,7.9674,7.9812,7.9764,7.9824,7.9839,7.9853,7.9863,7.947,7.984,7.9839,7.9838,7.9838,7.9837,0,7.8449,7.8514,7.8652,7.8801,7.8919,7.8881,7.8997,7.9098,7.9254,7.9354,7.9479,7.9665,7.9815,7.9889,8.0038,8.0135,8.0125,8.0173,8.0164,8.0179,7.99,7.9848,8.0178,8.0177,8.0177,8.0177,8.0177,8.0177,7.865,7.8855,7.8879,7.9124,7.9188,7.9359,7.9428,7.952,7.96,7.9808,7.9932,7.9979,8.0068,8.0223,8.0359,8.0376,8.0431,8.0485,8.0496,8.0234,8.0199,8.0166,8.0117,8.0497,8.0498,8.0762,8.0765,8.0767]},{"header":{"parameterUnit":"m.s-1","parameterCategory":1,"la1":30.2991,"la2":30.254,"lo1":-89.0895,"lo2":-89.0444,"dy":0.0017,"dx":0.0017,"nx":28,"ny":28,"refTime":"2024-09-26T03:00:00:Z","depth":0,"parameterNumber":3,"parameterNumberName":"V-component_of_WINDS"},"data":[0,0,0,0,0,0,0,0,0,0,0,0,0,0,0,0,0,0,0,0,0,0,0,0,0,0,0,0,0,0,0,0,0,0,0,0,0,0,0,0,0,0,0,0,0,0,0,0,0,0,0,0,0,0,0,0,0,0,2.4027,2.4027,0,2.4037,2.4037,2.4037,2.4,2.3999,2.3998,2.3997,2.4009,2.401,2.4011,0,0,0,0,0,0,0,0,0,0,0,0,0,2.3975,2.3976,2.4027,2.4027,2.4027,2.4037,2.4037,2.4037,2.4001,2.3999,2.3998,2.3997,2.4008,2.401,2.4011,0,0,0,0,0,0,0,0,0,0,0,0,0,2.3993,2.3977,2.4027,2.401,2.4009,2.4037,2.4037,2.4037,2.4001,2.3999,2.3998,2.3996,2.4008,2.401,2.4012,2.4057,0,0,2.4018,2.4019,0,0,0,0,0,0,0,0,2.3992,2.3995,2.4012,2.4011,2.401,2.4016,2.4023,2.4044,2.4001,2.4004,2.3997,2.3995,2.4012,2.4014,2.4019,2.4058,2.4058,2.4018,2.4019,2.402,2.402,0,0,0,0,0,0,0,2.3991,2.3994,2.4031,2.4013,2.4011,2.4002,2.4002,2.4027,2.4017,2.4003,2.4001,2.4002,2.4011,2.4018,2.4019,2.4058,2.4018,2.402,2.4021,2.4022,2.4133,2.4134,0,0,0,0,0,0,2.3992,2.3993,2.4031,2.4031,2.3997,2.4004,2.4005,2.4016,2.4017,2.4016,2.4004,2.4001,2.4015,2.4017,2.402,2.4072,2.402,2.4022,2.4023,2.4131,2.4133,2.4135,0,0,0,0,0,0,2.3991,2.3995,2.403,2.4012,2.4015,2.4007,2.4019,2.4017,2.4023,2.4017,2.4015,2.4012,2.4014,2.4017,2.4048,2.4072,2.4023,2.4024,2.4129,2.4132,2.4134,2.4178,0,0,0,0,0,0,2.3989,2.3995,2.4013,2.4012,2.4017,2.4058,2.4021,2.4018,2.4026,2.4022,2.4024,2.4023,2.4013,2.4045,2.405,2.4074,2.4026,2.4127,2.413,2.4133,2.4174,2.4182,2.4188,0,0,0,0,0,2.3988,2.4026,2.4014,2.4019,2.4038,2.406,2.4062,2.4049,2.4028,2.4046,2.4042,2.4023,2.4069,2.4048,2.4053,2.4079,2.4125,2.4129,2.4133,2.4171,2.418,2.4188,0,0,0,0,0,0,2.403,2.4025,2.4012,2.4051,2.4056,2.4054,2.4075,2.4059,2.4071,2.4067,2.405,2.4051,2.4084,2.4084,2.4062,2.4122,2.4093,2.4098,2.4121,2.4129,2.4136,2.4135,2.4028,0,0,0,0,0,2.4044,2.4062,2.4057,2.4091,2.4094,2.4084,2.4093,2.4082,2.4087,2.4089,2.4088,2.4093,2.4108,2.4119,2.4133,2.4174,2.4173,2.4194,2.4201,2.4206,2.4211,2.4232,2.424,2.4148,2.4148,2.4148,0,0,2.4073,2.4072,2.4085,2.41,2.4102,2.4121,2.4086,2.4108,2.4121,2.4093,2.4121,2.412,2.4125,2.4161,2.4177,2.4162,2.4236,2.4211,2.4216,2.4218,2.4236,2.4245,2.4253,2.4151,2.415,2.415,0,0,2.4135,2.4136,2.4165,2.4167,2.4171,2.4164,2.4171,2.417,2.4168,2.4196,2.4175,2.419,2.4217,2.4221,2.4227,2.4288,2.4271,2.4293,2.4329,2.4349,2.4357,2.4363,2.4384,2.4392,2.4297,2.4298,2.4298,0,2.417,2.4197,2.4181,2.4204,2.421,2.4184,2.4212,2.4216,2.4224,2.4229,2.4213,2.4245,2.4246,2.4282,2.4297,2.4302,2.4309,2.4293,2.4357,2.4363,2.4369,2.4388,2.4396,2.43,2.43,2.43,2.4299,0,2.424,2.4259,2.4281,2.4289,2.4298,2.4323,2.4311,2.4322,2.431,2.4304,2.4333,2.4333,2.4346,2.4354,2.4343,2.4387,2.4378,2.436,2.433,2.438,2.4398,2.4406,2.4304,2.4303,2.4302,2.4302,0,0,2.433,2.4327,2.4335,2.4338,2.4339,2.4353,2.4377,2.4389,2.4398,2.4404,2.4423,2.4446,2.4428,2.4434,2.4423,2.4441,2.4488,2.442,2.442,2.4432,2.4536,2.4549,2.4558,2.4476,2.4478,2.4479,2.4535,0,2.439,2.443,2.4415,2.4455,2.4472,2.4446,2.4466,2.4469,2.4464,2.4478,2.4472,2.4488,2.4464,2.4467,2.4483,2.4479,2.4508,2.4474,2.4493,2.4494,2.4492,2.4568,2.4583,2.4636,2.4542,2.4543,2.4544,0,2.4466,2.4474,2.4515,2.4512,2.4518,2.4537,2.4545,2.4558,2.4561,2.4556,2.4562,2.4546,2.4569,2.4539,2.4569,2.4546,2.4553,2.4552,2.4554,2.4555,2.4522,2.4571,2.4653,2.4661,2.4555,2.4555,2.4554,0,2.4526,2.4547,2.4574,2.4577,2.4574,2.4588,2.4587,2.4588,2.4595,2.4603,2.4607,2.4618,2.4623,2.4631,2.4619,2.4599,2.465,2.462,2.4647,2.4647,2.4659,2.4658,2.4742,2.4664,2.4664,2.4664,2.4664,0,2.4594,2.4621,2.4601,2.4618,2.4646,2.4629,2.4657,2.4654,2.4654,2.467,2.4649,2.4663,2.4646,2.466,2.465,2.4676,2.4679,2.4675,2.4672,2.4676,2.4677,2.468,2.4676,2.4666,2.4665,2.4665,2.4665,0,2.4667,2.4655,2.4682,2.4677,2.4676,2.4697,2.4692,2.4707,2.47,2.4719,2.4723,2.4712,2.4726,2.4714,2.4729,2.4722,2.4756,2.4748,2.4755,2.4752,2.4779,2.4776,2.4868,2.4879,2.4794,2.4795,2.4796,0,2.4711,2.473,2.4726,2.4734,2.4734,2.4748,2.4755,2.4739,2.4746,2.4749,2.4764,2.4776,2.4785,2.4809,2.4802,2.4813,2.4804,2.4836,2.4806,2.4809,2.4804,2.4802,2.4804,2.4842,2.4843,2.4844,2.4844,0,2.479,2.4783,2.4793,2.4801,2.4809,2.4815,2.4819,2.4827,2.481,2.482,2.4833,2.484,2.4853,2.4866,2.4873,2.4873,2.4856,2.4854,2.486,2.4865,2.4868,2.4865,2.4771,2.4852,2.4851,2.4851,2.485,2.485,2.4849,2.4864,2.4863,2.4875,2.4875,2.4879,2.4892,2.4886,2.4897,2.4906,2.4896,2.4912,2.4912,2.4921,2.4922,2.4935,2.4922,2.4931,2.4934,2.4936,2.4939,2.4866,2.4936,2.4936,2.4936,2.4936,2.4935,0,2.4926,2.4923,2.4934,2.494,2.4949,2.4931,2.4934,2.4942,2.4957,2.4958,2.4967,2.4982,2.4993,2.4987,2.4996,2.5007,2.4999,2.501,2.5009,2.5009,2.4951,2.4944,2.5016,2.5016,2.5016,2.5016,2.5016,2.5016,2.4967,2.4991,2.4984,2.5008,2.5005,2.502,2.5023,2.5026,2.5027,2.5044,2.5053,2.5048,2.5046,2.5055,2.5064,2.5062,2.5066,2.508,2.5075,2.5021,2.5013,2.5005,2.4999,2.5081,2.5081,2.5131,2.5132,2.5132]}]]